039  
AXUS43 KGID 131302  
MISGRI  
 
GID CWA HOURLY WEATHER ROUNDUP  
NATIONAL WEATHER SERVICE HASTINGS NE  
800 AM CDT MON JUL 13 2020  
 
NOTE: "FAIR" INDICATES FEW OR NO CLOUDS BELOW 12,000 FEET WITH NO  
SIGNIFICANT WEATHER AND/OR OBSTRUCTIONS TO VISIBILITY.  
   
..SOUTH CENTRAL NEBRASKA
 
 
 
CITY SKY/WX TMP DP RH WIND PRES REMARKS  
GRAND ISLAND SUNNY 69 62 78 S8 29.88S  
KEARNEY SUNNY 68 63 84 S8 29.88S  
HASTINGS SUNNY 68 62 81 S7 29.88S  
ORD SUNNY 69 62 78 S7 29.84S  
YORK SUNNY 70 68 94 SE13 29.87F  
AURORA SUNNY 69 65 89 SE10 29.87S  
LEXINGTON SUNNY 70 62 77 S7 29.88S  
HOLDREGE SUNNY 70 63 79 S10 29.88S  
HEBRON MOSUNNY 70 65 85 SE6 29.89S  
   
..NEBRASKA PANHANDLE
 
 
 
CITY SKY/WX TMP DP RH WIND PRES REMARKS  
CHADRON SUNNY 74 46 36 W6 29.85R  
ALLIANCE SUNNY 69 47 45 MISG 29.87R  
SCOTTSBLUFF SUNNY 68 49 50 NW6 29.90R  
SIDNEY N/A N/A N/A N/A MISG 29.89S  
   
..WESTERN AND NORTH CENTRAL NEBRASKA
 
 
 
CITY SKY/WX TMP DP RH WIND PRES REMARKS  
VALENTINE MOSUNNY 72 62 71 S18G30 29.73F  
AINSWORTH SUNNY 70 65 85 S21G29 29.76F  
ONEILL SUNNY 71 61 72 S14G20 29.82F  
BROKEN BOW SUNNY 70 63 78 MISG 29.85F  
IMPERIAL SUNNY 73 64 73 MISG 29.88R  
NORTH PLATTE SUNNY 72 63 73 S12G20 29.86R  
MCCOOK SUNNY 66 63 90 SE5 29.88R  
   
..EASTERN NEBRASKA
 
 
 
CITY SKY/WX TMP DP RH WIND PRES REMARKS  
NORFOLK SUNNY 71 63 75 SE14 29.86F  
SO SIOUX CITY SUNNY 69 65 86 SE9 29.89S  
TEKAMAH SUNNY 69 64 84 SE5 29.90F  
COLUMBUS SUNNY 71 65 81 SE10 29.88F  
ALBION SUNNY 68 66 92 S9 29.86F  
OMAHA EPPLEY MOSUNNY 74 64 71 SE7 29.92S  
OFFUTT AFB SUNNY 71 65 80 SE8 29.92S  
MILLARD SUNNY 73 66 78 SE7 29.91F  
LINCOLN SUNNY 72 64 76 S10 29.90F  
NEBRASKA CITY SUNNY 72 69 92 S8 29.93F  
BEATRICE MOSUNNY 71 65 79 SE8 29.91S  
FALLS CITY MOSUNNY 71 66 84 SE6 29.93R  
   
..NORTHERN KANSAS
 
 
 
CITY SKY/WX TMP DP RH WIND PRES REMARKS  
GOODLAND SUNNY 70 60 70 S16 29.90F  
HILL CITY SUNNY 67 61 81 S6 29.88F  
PHILLIPSBURG SUNNY 70 61 73 CALM 29.87S  
OBERLIN FAIR 68 63 83 SW8 29.92S  
HAYS SUNNY 68 65 90 S5 29.91R  
RUSSELL MOSUNNY 72 62 71 S12 29.88R  
CONCORDIA PTSUNNY 70 65 84 CALM 29.89S  
SALINA PTSUNNY 74 63 68 S7 29.89R  
TOPEKA MOSUNNY 73 65 75 SE3 29.93R  
 
CLICK HERE TO GO TO PREVIOUS BULLETINS.

The Nexlab NE Page
The Nexlab KS Page Main Text Page